Regional Weather Roundup
Issued by NWS Pendleton, OR

Home | Current Version | Previous Version | Text Only | Print | Product List | Glossary On
Versions: 1 2 3 4 5 6 7 8 9 10 11 12 13 14 15 16 17 18 19 20 21 22 23 24 25 26 27 28 29 30 31 32 33 34 35 36 37 38 39 40 41 42 43 44 45 46 47 48 49 50
000
ASUS46 KPDT 241325
RWRPDT
PENDLETON REGIONAL WEATHER ROUNDUP
NATIONAL WEATHER SERVICE PENDLETON OREGON
600 AM PDT FRI MAR 24 2017

NOTE: FAIR INDICATES FEW OR NO CLOUDS BELOW 12,000 FEET WITH NO
SIGNIFICANT WEATHER AND/OR OBSTRUCTIONS TO VISIBILITY.

# INDICATES UNOFFICIAL STATION AND DATA

WAZ520-241410-
EAST SLOPES OF WASHINGTON CASCADES

CITY            SKY/WX      TMP DP  RH  WIND    PRES   REMARKS
#CLE ELUM HS    N/A         37  35  92  CALM    29.81F
#CLE ELUM LAKE  N/A         N/A N/A N/A S22     29.82F
#GLENWOOD       N/A         37  36  96  CALM    29.86F
#NELSON 3SW     N/A         32  31  96  CALM    30.08F
#NILE           N/A         35  34  96  CALM    29.13F
#TEANAWAY 4NE   N/A         36  36  100 CALM    N/A
#TROUT LAKE 1NE N/A         35  34  96  CALM    29.88F
#TROUT LAKE 1E  N/A         34  33  96  CALM    29.87F
$$

WAZ521-241410-
SIMCOE HIGHLANDS

CITY            SKY/WX      TMP DP  RH  WIND    PRES   REMARKS
#BICKLETON HS   N/A         38  38  100 S6      29.89R
#CENTERVILLE 1SWN/A         41  37  86  CALM    29.82F
#GOLDENDALE 1NE N/A         43  38  82  N3      N/A
#GOLDENDALE 4W  N/A         42  38  86  CALM    29.87F
#GOODNOE HILLS  N/A         43  39  86  SE6     29.76F
#LYLE 6NE       N/A         40  39  96  N2      29.83F
#PITT 4SE       N/A         39  38  96  NE3     29.88F
$$

WAZ026-241410-
KITTITAS VALLEY

CITY            SKY/WX      TMP DP  RH  WIND    PRES   REMARKS
ELLENSBURG AP   LGT RAIN    41  38  89  W3      29.85F FOG
#ELLENSBURG CWU N/A         39  37  92  CALM    29.81F
#ELLENSBURG 3NE N/A         38  36  92  CALM    27.94F
#ELLENSBURG 1E  N/A         39  N/A N/A CALM    N/A
#ELLENSBURG 13S N/A         42  38  86  CALM    N/A
#KITTITAS 4N    N/A         39  34  82  E3      29.86F
#KITTITAS 3S    N/A         39  37  92  CALM    29.86F
#THORP 6N       N/A         36  35  96  SE6     29.88F
$$

WAZ027-241410-
YAKIMA VALLEY

CITY            SKY/WX      TMP DP  RH  WIND    PRES   REMARKS
SUNNYSIDE AP    LGT DRIZZLE 42  41  96  CALM    29.88F
YAKIMA AIRPORT  LGT RAIN    44  41  89  W5      29.87S
YAKIMA-VAGABOND LGT RAIN    41  38  89  CALM    29.84S
#GRANDVIEW      N/A         43  40  89  CALM    29.90F
#MABTON         N/A         44  42  93  E1      29.87F
#MOXEE 2E       N/A         41   0  17  CALM    29.83F
#NACHES 2SW     N/A         41  39  93  CALM    29.87S
#TERRACE HTS    N/A         42  40  93  CALM    29.84F
#TOPPENISH      N/A         44  42  93  CALM    29.80F
#WEST VALLEY    N/A         42  39  89  CALM    29.86F
#W YAKIMA       N/A         42  39  89  CALM    29.88F
#WHITE SWAN 5E  N/A         43  41  93  CALM    29.88F
#WILEY CITY 3W  N/A         40  36  85  CALM    29.83F
$$

WAZ028-241410-
LOWER COLUMBIA BASIN...WASHINGTON

CITY            SKY/WX      TMP DP  RH  WIND    PRES   REMARKS
PASCO           LGT RAIN    44  41  89  CALM    29.90F
PROSSER AWOS    N/A         45  43  93  E7      29.91F
RICHLAND AWOS   LGT RAIN    45  43  93  CALM    29.90F
#BENTON CITY    N/A         43  41  93  CALM    29.82S
#CONNELL 5N     N/A         40  38  92  NE1     29.90F
#CONNELL 5NW    N/A         41  39  93  CALM    29.85F
#ELTOPIA 6NW    N/A         42  40  93  CALM    28.86F
#KAHLOTUS       N/A         42  38  86  CALM    29.90F
#KENNEWICK 3S   N/A         43  39  86  CALM    29.90F
#PATERSON       N/A         44  42  93  SE2     29.88S
#SAGEMOOR 2W    N/A         41  38  89  CALM    29.78F
#TOUCHET 2S     N/A         44  40  86  S1      29.88F
#WEST PASCO     N/A         44  39  82  CALM    29.89S
$$

WAZ029-241410-
FOOTHILLS OF THE BLUES...WASHINGTON

CITY            SKY/WX      TMP DP  RH  WIND    PRES   REMARKS
WALLA WALLA AP  LGT RAIN    46  40  79  E8      29.88F
#CLYDE 6NW      N/A         43  38  82  W2      29.90F
#DAYTON SCHOOL  N/A         45  31  58  CALM    29.92F
#LOWDEN 2SE     N/A         44  41  89  CALM    29.86F
#PLEASANT VIEW 1N/A         42  37  82  CALM    29.95S
#PRESCOTT       N/A         43  40  89  CALM    29.89F
#WHITMAN COLLEGEN/A         48  40  74  CALM    29.93F
#WAITSBURG 5S   N/A         43  38  82  CALM    29.99F
#WAITSBURG 8N   N/A         42  N/A N/A NW2     29.85R
#WALLA WALLA 5E N/A         48  41  77  CALM    N/A
#WHITMAN MISSIONN/A         45  41  86  CALM    29.90F
$$

WAZ030-241410-
BLUE MOUNTAINS...WASHINGTON

CITY            SKY/WX      TMP DP  RH  WIND    PRES   REMARKS
#DIXIE 5SE      N/A         46  33  60  S15G25  29.79F WCI 40
$$

ORZ009-041-WAZ024-241410-
COLUMBIA RIVER GORGE

CITY            SKY/WX      TMP DP  RH  WIND    PRES   REMARKS
HOOD RIVER AP   RAIN        41  41  100 CALM    29.87F
THE DALLES AP   LGT RAIN    45  44  96  N3      29.86F
#ARLINGTON AIRPON/A         43  41  93  CALM    29.89F
#ARLINGTON HS   N/A         45  43  93  E12     29.80F WCI 39
#CELILO DOT     N/A         46  43  89  CALM    N/A
#LYLE           N/A         44  43  96  N2      29.88F
#MOSIER 1S      N/A         42  37  82  CALM    29.85S
#MURDOCK        N/A         44  43  96  NW3     29.84F
#RUFUS DOT      N/A         46  46  100 SE3     N/A
#SMITHVILLE     N/A         46  44  93  CALM    29.82F

$$

ORZ510-241410-
NORTH CENTRAL OREGON

CITY            SKY/WX      TMP DP  RH  WIND    PRES   REMARKS
#ANTELOPE       N/A         42  38  86  CALM    29.73F
#CHENOWITH 1W   N/A         41  40  96  E6      N/A
#COW CYN RST AREN/A         41  41  100 SE7     N/A
#DUFUR          N/A         41  40  96  CALM    29.82F
#DUFUR 9E       N/A         42  40  93  S5      29.90F
#GRASS VALLEY 1SN/A         43  42  96  S1      29.98F
#KENT DOT       N/A         42  37  82  N8      N/A
#MAUPIN SCHOOL  N/A         44  41  89  CALM    29.89F
#MORO SCHOOL    N/A         41  41  100 CALM    29.92F
#SHANIKO 4NW    N/A         38  37  96  S18     29.81S WCI 28
#TYGH VALLEY 2NEN/A         43  41  93  CALM    29.84F
#WAPANITIA AIRPON/A         41  40  96  CALM    29.86F
#WASCO 5NE      N/A         41  38  89  CALM    29.87F
$$

ORZ511-241410-
CENTRAL OREGON

CITY            SKY/WX      TMP DP  RH  WIND    PRES   REMARKS
BEND AIRPORT    CLOUDY      43  34  70  S13     29.83F WCI 36
MADRAS AIRPORT  LGT DRIZZLE 43  39  86  S18G25  29.83F WCI 35
PRINEVILLE AP   CLOUDY      43  36  76  SE14G24 29.84F WCI 36
REDMOND AIRPORT CLOUDY      45  32  60  S10     29.83F
#ASHWOOD SCHOOL N/A         43  38  82  S8      29.80F
#BEND 1SW       N/A         38  36  92  W3      N/A
#BEND-AWBREY    N/A         39  37  92  SW13    29.82F WCI 31
#BEND-KIM LN    N/A         43  36  76  S6      29.75F
#CULVER         N/A         45  36  70  SE7     29.75F
#CULVER 8W      N/A         43  38  82  SE6     29.83S
#LAKE BILLY CHINN/A         44  N/A N/A SW2     29.91F
#POWELL BUTTE   N/A         44  34  68  S22     29.79F WCI 35
#PRINEVILLE     N/A         42  37  82  SE8     29.93F
#PRINEVILLE 3N  N/A         44  38  79  E12     29.83F WCI 38
#WARM SPRINGS   N/A         44  42  93  CALM    29.80F

$$


ORZ509-241410-
EAST SLOPES OF OREGON CASCADES

CITY            SKY/WX      TMP DP  RH  WIND    PRES   REMARKS
SISTERS AWOS    N/A         41  37  86  CALM    29.79F
#BLUE BOX PASS  N/A         34  N/A N/A SE7     N/A
#CAMP SHERMAN   N/A         38  36  92  CALM    29.86F
#LA PINE 4SW    N/A         39  32  76  E5      29.85F
#LA PINE 4NW    N/A         36  32  85  CALM    29.91F
#LAVA BUTTE DOT N/A         36  32  85  S2      N/A
#SISTERS 3N     N/A         39  36  89  CALM    29.85S
#SUNRIVER       N/A         37  35  92  S3      29.86F
#TUMALO 3W      N/A         40  36  85  S7      29.71F
#WANOGA BUTTE D N/A         30  30  100 W10     N/A

$$

ORZ044-241410-
LOWER COLUMBIA BASIN...OREGON

CITY            SKY/WX      TMP DP  RH  WIND    PRES   REMARKS
HERMISTON       LGT RAIN    45  44  96  N3      29.88F
#BOARDMAN SCHOOLN/A         45  43  93  CALM    29.89S
#BOARDMAN 8SW   N/A         45  43  93  CALM    29.88S
#ECHO 8SW       N/A         44  44  100 CALM    29.89F
#I-84 EX 198 DOTN/A         48  43  83  N16     N/A    WCI 42
#IONE SCHOOL    N/A         44  30  58  CALM    29.88F
#UMATILLA       N/A         45  40  82  CALM    29.83S
$$

ORZ507-241410-
NORTHERN FOOTHILLS OF THE BLUES

CITY            SKY/WX      TMP DP  RH  WIND    PRES   REMARKS
PENDLETON AIRPT LGT RAIN    44  43  96  E3      29.87F
#ADAMS 3WNW     N/A         45  40  82  CALM    29.88F
#ATHENA         N/A         48  39  71  S5      29.91F
#CAYUSE         N/A         49  40  71  SE6     29.88F
#HELIX SCHOOL   N/A         43  40  89  N7      29.88F
#HELIX 3N       N/A         44  40  86  S9      29.85F
#HOLDMAN 5SE    N/A         44  42  93  CALM    29.87F
#HOLDMAN 6E     N/A         43  41  93  CALM    29.69F
#M-F FERNDALE   N/A         45  37  73  CALM    29.87F
#M-F GROVE ELEM N/A         52  36  54  SE2     29.85F
#M-FREEWATER 5SEN/A         51  37  59  E8      29.88F
#PENDLETON DNTN N/A         45  38  76  CALM    29.89S
#PDT AQUATIC CTRN/A         45  41  86  CALM    29.75F
#PDT SUNRIDGE   N/A         44  42  93  CALM    29.89F
#PILOT ROCK 1S  N/A         47  36  65  CALM    29.87F
#PILOT ROCK     N/A         46  40  79  E2      29.88F
#TUTUILLA       N/A         45  41  86  S5      29.89F
#UMAPINE 2E     N/A         45  40  82  E1      29.86F
#WESTON SCHOOL  N/A         47  35  63  SW6     29.89F

$$

ORZ508-241410-
SOUTHERN FOOTHILLS OF THE BLUES

CITY            SKY/WX      TMP DP  RH  WIND    PRES   REMARKS
LEXINGTON       CLOUDY      46  45  96  SE10    29.88F FOG
#AJAX           N/A         42  35  76  CALM    30.00F
#CONDON SCHOOL  N/A         42  39  89  S8      29.80F
#CONDON 5W      N/A         40  37  89  S16G25  29.80F WCI 32
#FOSSIL SCHOOL  N/A         43  39  86  SE1     29.80F
#HEPPNER EOC    N/A         45  39  79  S5      29.80S
#HEPPNER 4NE    N/A         43  39  86  S2      29.86F
#LEXINGTON 2SE  N/A         48  42  80  SE7     29.83S
#OLEX 4N        N/A         43  41  93  E2      29.85F
#RUGGS 5NE      N/A         41  39  93  N6      30.01S
#RUGGS 2SW      N/A         43  38  82  SE15G26 29.88F WCI 36

$$

ORZ502-503-241410-
BLUE MOUNTAINS

CITY            SKY/WX      TMP DP  RH  WIND    PRES   REMARKS
MEACHAM         LGT RAIN    38  32  79  CALM    29.89F
#BATTLE MTN DOT N/A         35  34  96  S12     N/A    WCI 27
#GREENHORN 9SW  N/A         32  N/A N/A CALM    26.14F
#HARDMAN 10S    N/A         34  34  100 SE8     30.01F
#HEPPNER 15SE   N/A         36  34  92  W2      29.88F
#LADD CYN SMT   N/A         43  26  51  SE16    N/A    WCI 35
#LADD CREEK ODOTN/A         44  27  51  SW8     N/A
#LONG CREEK HS  N/A         41  39  93  S16G24  N/A    WCI 33
#N POWDER DOT   N/A         44  29  55  SE22    N/A    WCI 35
#PIKES PEAK     N/A         43  32  65  W17G29  27.99S WCI 35
#TOLLGATE       N/A         33  30  89  SW3     29.76S
#TROY SCHOOL    N/A         39  34  82  CALM    29.83R
#UKIAH          N/A         39  37  92  CALM    29.85F
#WESTON 4E      N/A         40  36  85  SE13    29.86F WCI 32
$$

ORZ505-241410-
JOHN DAY BASIN

CITY            SKY/WX      TMP DP  RH  WIND    PRES   REMARKS
JOHN DAY        LGT RAIN    42  37  82  SE10    29.92F
#JOHN DAY KJDY  N/A         43  N/A N/A CALM    29.74R
#ANTELOPE 9ESE  N/A         45  43  93  CALM    N/A
#DAYVILLE SCHOOLN/A         43  37  79  SE6     29.89F
#MITCHELL       N/A         43  38  82  CALM    30.02F
#MITCHELL 8NW   N/A         39  34  82  SW7     29.67F
#MONUMENT HS    N/A         44  41  89  CALM    29.87S
#MT. VERNON 5SE N/A         38  35  89  E1      29.86F
#SPRAY SCHOOL   N/A         45  N/A N/A CALM    N/A
#WINLOCK        N/A         42  39  89  SE2     29.85F
$$

ORZ506-241410-
OCHOCO AND JOHN DAY HIGHLANDS

CITY            SKY/WX      TMP DP  RH  WIND    PRES   REMARKS
#HORSE RIDGE DO N/A         38  32  79  SE22    N/A    WCI 27
#PAULINA SCHOOL N/A         39  34  82  S8      N/A
#PINE MTN OBS   N/A         29  28  96  SE16G26 N/A    WCI 17
#PRAIRIE CITY   N/A         41  36  82  CALM    30.09S
#SENECA         N/A         36  N/A N/A N5      N/A
#SENECA 9NW     N/A         35  34  96  CALM    29.94F
$$

ORZ049-241410-
GRANDE RONDE VALLEY

CITY            SKY/WX      TMP DP  RH  WIND    PRES   REMARKS
LA GRANDE       CLOUDY      48  28  46  S12     29.90S WCI 43
#COVE           N/A         51  34  52  SE5     29.92R
#COVE SCHOOL    N/A         50  34  54  SE14G26 29.92R
#COVE 6NW       N/A         48  33  56  SE7     29.93S
#ELGIN 3N       N/A         36  29  75  CALM    29.90S
#ELGIN 1E       N/A         37  32  82  CALM    N/A
#IMBLER SCHOOL  N/A         38  31  76  CALM    29.88S
#ISLAND CITY 4N N/A         47  46  96  CALM    29.83R
#UNION 1S       N/A         47  30  51  S8      29.93R
$$

ORZ050-241410-
WALLOWA COUNTY

CITY            SKY/WX      TMP DP  RH  WIND    PRES   REMARKS
JOSEPH AIRPORT  CLOUDY      41  27  57  NW8     29.89F
#IMNAHA SCHOOL  N/A         39  34  82  CALM    29.93F
#IMNAHA 10S     N/A         49  27  42  SW8     29.91S
#JOSEPH 3N      N/A         38  26  62  W2      29.93S
#JOSEPH 3W      N/A         36  28  72  CALM    29.74S
#LOSTINE        N/A         34  31  89  CALM    29.78R
#LOSTINE 3SE    N/A         35  32  89  W1      29.95S
#MT HOWARD 8000 N/A         27  23  85  SW13G40 29.79F WCI 16
#PROMISE 1S     N/A         35  29  78  CALM    30.02S
#WALLOWA SCHOOL N/A         34  32  92  CALM    29.91R



$$



USA.gov is the U.S. government's official web portal to all federal, state and local government web resources and services.